Regional Weather Roundup
Issued by NWS

Home | Current Version | Previous Version | Graphics & Text | Print | Product List | Glossary Off
Versions: 1 2 3 4 5 6 7 8 9 10 11 12 13 14 15 16 17 18 19 20 21 22 23 24 25 26 27 28 29 30 31 32 33 34 35 36 37 38 39 40 41 42 43 44 45 46 47 48 49 50

000
ASUS43 KTOP 222259
RWRKS

WEATHER ROUNDUP FOR KANSAS
NATIONAL WEATHER SERVICE GOODLAND KS
600 PM CDT SUN APR 22 2018

NOTE:  "FAIR" INDICATES FEW OR NO CLOUDS BELOW 12,000 FEET WITH NO
SIGNIFICANT WEATHER AND/OR OBSTRUCTIONS TO VISIBILITY.

KSZ001>006-013>018-027>032-041>047-230000-
NORTHWEST KANSAS

CITY           SKY/WX    TMP DP  RH WIND       PRES   REMARKS
GOODLAND       SUNNY     55  35  47 E6        30.15F
HAYS           MOSUNNY   65  36  34 E8        30.12F
HILL CITY      MOSUNNY   60  38  43 SE5       30.15S
RUSSELL        PTSUNNY   61  41  47 NE14      30.12R
$$

KSZ061>065-074>080-084>089-230000-
SOUTHWEST KANSAS

CITY           SKY/WX    TMP DP  RH WIND       PRES   REMARKS
DODGE CITY     MOSUNNY   61  38  42 N13       30.12F
GARDEN CITY    MOSUNNY   56  38  50 E5        30.13F
GREAT BEND     CLOUDY    59  41  51 NE14      30.13R
LIBERAL        MOSUNNY   59  38  45 NE10      30.14F
$$

KSZ066>073-081>083-090>101-230000-
SOUTHEAST KANSAS

CITY           SKY/WX    TMP DP  RH WIND       PRES   REMARKS
CHANUTE        CLOUDY    55  51  86 NE12      30.03R
COFFEYVILLE    CLOUDY    54  52  93 N9        30.01R
HUTCHINSON     CLOUDY    57  42  57 N12G21    30.10F
MEDICINE LODGE   N/A     61  42  49 N18G26    30.07S
NEWTON         CLOUDY    52  45  77 NW10      30.09S
PARSONS        CLOUDY    55  52  89 N7        30.02S
WICHITA INTL   CLOUDY    56  45  66 N15G28    30.08R
WICHITA JABRA  CLOUDY    54  46  74 N15       30.07R
WICHITA MCCONL CLOUDY    55  44  67 N14       30.07R
WINFIELD       CLOUDY    53  47  79 N17       30.07R
$$

KSZ007>012-019>026-033>040-048>060-102>105-230000-
NORTHEAST KANSAS

CITY           SKY/WX    TMP DP  RH WIND       PRES   REMARKS
CONCORDIA      CLOUDY    59  38  45 NE8       30.13S
EMPORIA        CLOUDY    60  49  66 NE14      30.04S
LAWRENCE       MOSUNNY   67  43  41 E15G24    30.06S
MANHATTAN      PTSUNNY   64  43  46 N13       30.08F
OLATHE IND     CLOUDY    63  45  51 NE16G24   30.06S
OLATHE EXE     CLOUDY    62  45  53 NE15      30.05S
SALINA         PTSUNNY   61  41  47 N13       30.12S
TOPEKA BILLARD SUNNY     67  44  43 NE17      30.06R
TOPEKA FORBES  PTSUNNY   67  46  47 NE14      30.06S
$$




USA.gov is the U.S. government's official web portal to all federal, state and local government web resources and services.